GFSSW_sfc_30mbdewp_351.txt.gz
Dewpoint
57 57 57 57 58 58 58 58 58 58 58 57 56 54 53 52 51 39 26 16 31 46 44 29 25 28 26 25 31 27 22 16 13 10 7 17 25 36 37 38 34 33 34 33 34
58 58 58 58 58 58 58 58 58 58 58 58 57 55 53 52 46 34 34 41 44 44 25 11 9 23 21 25 28 28 24 18 19 13 11 12 24 32 38 37 34 31 32 34 34
58 58 58 57 58 58 58 58 58 58 58 58 57 55 52 51 29 20 43 43 41 42 30 25 23 23 20 25 25 28 23 22 18 16 17 19 32 37 36 37 37 38 33 34 34
58 57 58 57 57 57 57 57 57 57 58 58 56 53 51 45 21 12 42 40 38 35 28 23 20 19 18 17 20 21 26 25 21 20 23 22 36 35 36 36 36 36 34 34 34
58 58 58 58 57 57 57 57 57 56 57 57 54 51 39 22 23 30 36 32 32 29 21 20 17 16 11 14 14 16 19 21 24 23 26 28 31 33 36 34 33 33 34 34 34
59 59 59 58 58 58 58 58 57 57 57 56 53 50 31 23 19 25 19 10 10 21 20 22 18 20 17 16 13 13 14 15 17 19 24 23 23 30 36 32 32 33 33 34 34
59 59 59 58 58 58 57 56 56 56 56 53 51 47 35 25 11 14 10 6 10 13 10 18 21 20 20 16 18 18 15 15 15 18 22 25 19 24 33 31 31 32 32 32 33
59 58 58 58 58 58 57 57 56 56 52 48 49 43 23 24 14 12 12 9 9 12 14 18 20 22 21 20 14 15 14 9 7 16 21 17 5 10 31 31 31 30 30 30 32
58 58 57 57 57 57 57 56 55 52 45 48 39 33 19 22 14 13 12 8 8 10 12 15 22 18 20 14 6 11 -2 3 7 17 18 19 9 13 30 31 31 29 28 29 30
57 57 57 57 57 57 56 54 49 40 38 43 34 24 25 20 15 14 12 10 9 11 13 15 18 17 19 12 11 4 3 8 4 7 21 19 18 19 27 30 31 29 28 28 30
57 57 57 56 57 56 53 37 41 39 39 38 37 23 30 36 29 21 14 11 11 13 11 15 11 12 12 14 10 3 1 1 4 8 16 15 15 17 23 29 30 29 28 28 29
56 56 56 56 56 54 45 33 36 36 33 35 35 36 37 36 35 25 13 18 12 14 11 12 13 16 13 15 15 13 10 8 8 7 18 15 13 19 21 25 28 29 29 29 28
56 55 56 54 54 47 46 32 31 30 35 36 35 32 20 19 27 24 13 14 17 18 16 18 20 19 17 17 16 16 14 14 13 10 11 13 9 10 15 23 26 29 29 29 28
55 55 55 52 48 49 45 29 32 34 33 30 27 18 15 16 17 15 16 15 12 12 13 14 16 15 15 15 17 16 17 16 15 14 17 10 9 11 12 14 23 26 28 29 29
55 55 54 51 49 47 39 29 35 38 8 24 20 17 14 15 18 16 11 11 12 13 10 14 14 13 13 14 16 15 13 18 27 23 16 12 12 11 8 7 14 18 19 26 29
54 54 53 48 47 47 32 36 40 28 15 25 18 17 29 20 16 13 8 8 10 7 7 9 11 9 10 11 14 19 16 20 20 21 17 16 14 17 15 15 16 19 20 21 28
53 53 51 49 45 34 39 43 30 22 23 25 26 32 31 29 24 12 11 12 16 18 16 17 16 9 11 8 13 15 15 17 15 16 14 13 13 14 16 17 17 18 17 22 24
53 52 48 44 36 37 43 38 24 22 25 34 34 32 27 28 27 15 14 17 15 13 13 12 18 11 9 10 10 15 17 16 12 13 12 12 10 11 14 15 16 16 17 17 17
52 48 45 43 37 41 41 29 24 25 28 31 28 26 26 30 25 25 19 22 22 14 22 23 22 16 9 11 15 11 13 25 21 23 20 18 16 14 7 11 13 14 14 15 17
49 46 45 40 40 43 36 31 30 31 34 33 27 28 26 26 27 28 28 26 25 19 20 25 21 18 10 8 12 21 26 20 23 14 13 17 15 8 3 8 11 13 12 14 15
48 42 40 39 42 38 30 31 33 33 32 31 30 28 30 28 29 28 27 28 30 26 30 29 26 20 19 11 14 20 21 23 24 22 16 16 10 6 5 8 11 14 14 13 14
45 37 38 40 34 34 32 34 34 33 34 33 35 32 31 31 29 29 28 26 31 29 29 28 28 22 22 16 15 21 23 24 19 18 21 21 4 7 8 9 12 13 16 16 15
42 39 37 38 31 31 34 34 35 34 33 34 33 34 34 31 28 29 27 30 29 31 29 29 25 19 17 18 14 18 9 9 14 20 17 17 2 7 7 8 10 10 11 13 14
40 34 32 32 32 31 32 32 32 37 34 35 34 34 33 30 32 29 29 30 34 33 35 34 27 23 17 19 17 11 2 4 10 15 11 2 -4 0 3 5 7 9 10 11 12
41 36 35 30 27 30 32 32 30 30 35 35 33 32 31 28 29 28 30 30 32 33 34 32 23 22 8 8 4 1 -0 0 -0 0 4 -4 -4 0 3 5 7 9 9 9 10
37 36 36 34 35 31 30 30 30 30 32 30 30 31 32 29 29 27 29 29 22 24 29 27 21 21 4 3 1 -2 0 -1 -2 -0 -1 -1 -3 5 7 8 7 7 7 7 8
39 41 38 34 32 31 20 17 18 22 32 22 24 28 30 22 19 16 15 13 11 11 11 17 18 17 9 3 7 3 -2 -2 -1 0 0 -5 0 5 3 4 5 6 7 7 8

GFSSW_sfc_30mbdewp_357.txt.gz
Dewpoint
58 58 58 57 58 58 57 57 57 57 57 57 57 56 57 56 53 45 35 33 41 47 41 27 25 31 26 23 31 27 21 16 14 12 11 9 12 35 38 36 37 38 37 35 35
57 57 58 58 58 57 56 57 57 57 57 57 56 56 56 55 48 39 38 39 43 49 27 17 16 24 18 19 28 27 21 16 18 15 13 12 15 16 29 35 36 36 34 34 37
57 57 58 58 57 56 56 56 56 57 57 57 56 55 55 53 32 26 42 43 48 44 20 13 17 20 12 24 22 26 14 21 21 18 17 16 17 27 26 26 34 31 35 34 38
56 57 57 57 57 56 56 56 56 57 57 57 56 55 54 46 19 16 46 46 45 32 24 21 21 18 15 13 21 15 25 24 21 22 23 22 24 25 27 24 32 37 38 35 37
56 57 57 56 56 56 56 56 55 55 57 57 55 55 46 28 27 31 45 43 35 27 18 16 14 15 10 16 15 18 19 19 24 23 23 24 23 23 26 31 35 36 37 36 36
56 57 57 56 56 56 56 55 55 56 57 56 55 53 33 29 23 33 26 28 25 22 20 19 12 15 12 12 11 12 13 14 15 14 16 16 15 23 27 32 34 35 35 36 36
56 57 57 56 56 56 55 55 55 56 56 55 51 47 33 30 15 27 8 6 8 15 12 20 21 17 18 15 18 17 13 14 15 14 14 19 13 15 18 30 29 32 34 35 35
56 56 56 56 56 55 55 55 55 55 55 52 50 41 26 29 16 11 11 11 9 12 13 19 22 19 18 18 14 11 11 12 11 15 15 15 11 8 14 24 23 28 33 34 35
55 56 55 55 55 55 55 54 54 53 50 48 41 33 23 25 15 14 12 11 8 10 12 19 21 18 19 14 12 8 18 13 10 14 12 16 12 13 27 28 24 28 31 32 33
55 55 55 55 55 55 54 53 50 40 43 46 32 27 26 23 21 14 13 11 11 10 12 14 18 17 18 13 20 19 9 7 8 7 14 12 15 18 19 21 21 26 29 30 32
55 55 55 55 55 54 52 40 40 38 39 35 34 26 33 39 38 34 19 12 11 10 17 14 14 14 20 16 18 15 12 12 10 8 8 9 9 10 12 18 21 25 26 28 29
55 55 55 55 54 53 47 39 34 35 31 37 37 37 38 38 37 38 15 20 13 21 14 16 17 18 16 17 16 16 15 15 15 14 11 12 14 16 15 19 16 16 18 20 21
55 55 54 54 54 48 47 41 31 31 34 35 34 34 30 36 34 34 14 19 19 16 13 17 19 18 18 18 16 16 15 16 16 17 17 14 15 17 17 13 12 13 16 19 20
54 54 54 54 46 47 44 32 33 34 31 28 31 26 15 18 17 21 16 16 15 18 19 16 18 18 18 19 19 17 18 17 17 16 14 18 14 17 14 11 11 12 15 17 20
54 53 53 53 48 45 44 31 35 38 14 24 23 18 15 15 17 18 11 12 17 15 15 17 15 14 14 15 17 15 17 17 20 18 22 22 19 17 9 9 10 11 14 16 19
53 53 52 50 48 47 36 36 41 29 15 21 18 16 23 23 21 12 9 10 10 9 9 13 12 12 14 15 16 18 18 21 21 21 15 17 18 12 7 8 10 11 13 15 17
52 52 50 50 45 38 40 43 30 22 22 19 22 22 30 29 27 17 13 9 16 15 18 18 16 10 10 9 14 16 15 14 14 15 13 15 16 6 8 10 12 11 12 14 16
52 52 50 50 49 42 44 37 23 23 22 29 33 32 30 28 27 22 16 15 15 19 19 19 17 16 10 12 14 15 13 14 11 10 12 14 13 5 8 10 12 11 12 12 14
52 48 48 46 45 43 40 27 26 25 25 27 30 28 26 28 27 23 17 19 23 18 19 18 18 17 9 13 15 15 14 20 17 19 17 15 4 6 4 6 8 9 9 11 13
47 46 45 42 41 43 36 30 31 31 29 31 25 27 24 24 26 26 26 25 24 21 22 22 21 21 11 10 18 16 21 18 21 12 10 11 7 4 1 5 6 8 8 10 11
46 41 40 40 42 38 30 30 33 34 32 30 30 29 29 27 28 27 27 26 27 24 18 25 24 20 17 14 18 19 19 23 23 21 13 12 6 4 3 5 5 7 9 10 11
44 35 39 42 34 33 30 34 35 34 34 34 34 33 30 29 28 28 27 27 28 25 22 25 26 20 20 15 15 18 18 22 18 15 19 19 1 5 6 7 6 6 9 11 11
37 37 38 38 29 30 31 34 35 33 33 34 32 34 32 31 27 30 29 30 29 28 30 29 25 18 16 18 19 16 8 10 14 16 15 15 -1 6 6 5 6 6 8 9 10
34 29 33 33 31 28 27 27 22 26 30 26 29 31 27 30 31 29 29 30 30 29 32 32 27 22 16 11 10 9 2 5 9 14 9 -1 -6 -1 2 2 4 6 8 9 9
31 29 34 27 27 22 19 18 17 16 20 22 20 18 16 20 18 24 24 28 25 19 29 30 22 3 2 2 0 -2 -2 -0 -1 -1 3 -5 -6 -2 1 3 4 6 6 5 3
27 28 28 13 18 14 7 9 11 9 14 15 14 16 14 12 10 13 13 8 8 13 14 18 8 4 -2 2 0 -3 -2 -2 -2 -2 -3 -3 -5 3 4 5 4 5 4 0 0
27 28 27 7 7 7 4 3 6 6 12 17 14 15 11 11 13 12 11 10 8 7 7 13 16 7 -5 2 4 -3 -4 -3 -4 -3 -2 -5 -3 1 -0 0 3 3 1 -1 -2

GFSSW_sfc_30mbdewp_360.txt.gz
Dewpoint
56 56 56 58 58 56 56 55 55 56 56 56 56 55 55 55 55 47 39 37 43 43 43 33 29 30 28 25 31 28 14 7 7 10 8 11 11 22 36 28 35 39 38 37 38
56 57 57 57 56 55 55 55 56 56 57 56 56 55 55 54 50 40 38 42 47 48 29 22 18 23 18 18 26 21 12 9 11 12 9 12 14 13 27 27 32 36 38 37 40
56 56 56 56 56 56 56 56 56 56 57 56 55 55 55 53 35 27 41 45 46 51 24 20 14 17 11 16 18 17 12 11 12 16 14 14 14 16 17 13 18 19 30 38 39
56 56 56 56 56 55 55 55 55 56 56 57 55 55 54 47 22 18 46 47 50 40 20 17 15 13 9 13 11 14 16 15 11 15 19 18 16 15 20 15 15 22 31 38 39
56 56 56 55 55 55 55 54 54 54 56 56 55 55 50 34 31 32 48 47 44 29 19 15 13 9 9 10 13 16 10 14 18 23 21 20 18 18 16 18 22 28 38 37 38
56 57 56 55 55 55 55 54 53 54 55 55 55 54 45 32 26 32 41 41 32 22 16 16 9 12 10 9 11 10 13 12 13 12 11 10 9 11 17 19 19 29 31 35 38
55 56 56 55 55 54 54 53 54 55 55 54 54 51 40 33 20 33 24 21 17 20 17 19 18 14 14 12 15 14 11 12 13 13 12 14 12 13 13 14 20 28 31 34 36
55 55 55 55 55 55 54 54 54 54 54 54 50 46 33 31 23 17 12 11 11 13 15 18 22 18 15 16 14 13 15 17 18 16 15 15 13 17 24 21 21 22 25 30 33
55 55 55 55 55 55 55 54 54 53 49 49 47 37 29 29 17 17 13 13 10 11 14 18 22 17 20 16 20 16 18 18 19 14 14 16 15 18 22 18 17 24 26 28 29
55 55 55 55 54 54 54 53 50 42 45 47 33 31 29 26 21 14 14 15 18 13 14 15 17 17 17 18 18 19 18 15 16 11 12 12 13 15 15 19 18 18 19 21 22
55 55 55 54 54 54 51 43 38 37 39 36 32 28 28 33 39 36 35 20 18 15 22 16 17 18 20 19 22 23 21 20 19 16 14 16 15 15 17 15 15 16 18 19 21
54 54 54 54 54 53 48 44 37 35 32 36 36 36 36 38 35 36 23 29 26 24 23 21 20 23 23 23 22 21 19 18 18 18 15 15 15 16 15 13 13 15 17 19 21
54 54 54 54 53 49 46 45 32 33 34 34 34 34 34 37 35 36 27 27 22 23 24 22 23 21 24 19 19 19 18 17 17 17 18 16 15 15 12 11 11 13 16 17 20
54 54 54 53 49 47 43 38 33 36 31 28 32 35 22 33 23 32 20 21 21 22 22 22 24 20 19 19 20 18 19 18 18 18 14 18 9 15 14 9 10 11 14 16 18
53 53 52 52 47 45 43 34 36 40 20 26 26 19 16 17 19 18 13 15 18 17 17 20 17 18 18 19 19 18 20 19 19 19 20 18 17 12 9 8 9 10 12 14 16
53 52 51 48 49 47 39 38 43 31 19 20 20 18 18 20 21 14 12 12 12 13 14 16 15 15 17 18 18 20 20 21 23 22 18 18 17 9 7 8 9 10 12 14 15
50 51 51 49 44 44 41 44 30 23 22 19 22 20 25 27 28 19 17 14 21 18 17 17 13 12 13 14 17 18 17 19 18 17 15 16 18 7 8 10 10 10 11 12 13
48 48 49 48 48 43 44 37 24 22 22 25 30 31 28 27 28 28 23 22 19 20 20 18 16 17 12 14 15 17 18 18 12 12 12 15 16 5 9 11 10 10 11 11 12
45 46 48 47 49 46 40 28 26 23 25 25 26 26 26 28 29 26 23 23 22 18 20 20 19 15 11 14 18 17 15 21 20 20 17 14 5 7 7 7 8 8 8 10 11
42 42 44 42 45 44 36 29 30 32 32 33 28 28 26 27 27 27 25 26 23 23 22 26 22 22 12 13 20 21 22 18 21 13 10 13 10 8 4 5 6 6 8 9 11
44 37 41 41 43 38 29 31 30 33 34 30 29 29 30 28 28 28 28 28 26 26 22 27 26 22 16 18 20 19 22 24 23 21 13 10 9 3 3 5 5 7 9 9 10
38 28 39 42 33 33 30 29 34 29 28 31 31 25 26 26 27 28 28 29 28 25 23 26 28 23 20 16 18 21 23 23 20 18 20 18 2 5 6 6 7 7 9 10 10
28 30 38 39 27 26 26 21 22 21 19 24 21 24 23 21 19 20 24 33 31 27 29 29 25 19 16 20 21 17 11 14 18 20 20 17 -1 6 5 5 7 6 7 9 9
30 25 32 33 29 20 17 17 15 15 17 19 20 16 15 17 19 21 19 24 25 22 29 32 21 17 16 13 13 8 3 7 12 16 11 -3 -5 1 2 3 4 6 7 6 5
29 27 28 18 17 15 12 10 9 11 11 16 13 13 13 13 13 15 16 12 15 15 19 18 1 2 2 2 1 -0 -1 0 -0 1 4 -4 -5 -1 2 3 4 6 4 1 0
26 24 18 11 11 10 7 6 6 6 7 11 10 12 11 8 7 6 9 7 7 7 11 17 2 3 -1 2 1 -3 -1 -2 -2 -1 -3 -3 -5 3 4 5 5 4 1 -1 -1
29 28 18 6 8 8 4 3 3 4 6 13 12 13 9 11 13 12 7 4 -2 2 5 12 6 4 -2 3 4 -3 -4 -3 -3 -2 0 -4 -2 2 1 0 2 2 1 -2 -2

GFSSW_sfc_30mbdewp_363.txt.gz
Dewpoint
56 56 55 54 55 55 55 55 55 56 55 55 55 55 55 54 54 48 42 40 42 47 48 33 35 32 27 26 26 27 19 13 13 10 9 11 11 11 22 25 24 28 28 35 39
56 56 56 55 55 55 55 55 55 55 55 56 56 55 55 56 50 42 40 43 45 45 38 31 24 21 20 18 22 22 13 11 12 11 10 10 11 13 17 20 20 27 33 38 40
56 56 56 55 55 55 55 55 54 55 55 55 55 54 55 54 40 26 38 45 45 48 34 27 21 22 20 17 18 20 16 12 12 13 14 14 12 13 12 12 13 14 15 34 39
56 56 56 55 54 54 54 54 54 54 55 55 55 55 54 49 25 26 47 48 48 47 28 22 14 16 15 14 14 14 15 14 14 14 12 15 18 15 13 13 17 16 16 34 39
55 55 55 54 54 54 54 54 53 53 54 55 54 55 51 39 35 34 49 50 49 43 22 16 15 16 16 15 14 13 13 13 12 11 13 16 16 14 14 14 15 16 19 21 36
55 55 55 54 54 54 54 54 53 54 55 54 54 54 49 37 33 31 42 45 41 36 26 21 18 18 16 13 13 13 12 13 12 12 14 12 9 9 12 14 16 16 16 25 28
54 55 55 55 54 54 53 53 53 54 54 53 53 51 46 38 29 28 39 39 36 25 20 16 15 12 14 12 14 12 11 12 12 11 11 13 13 13 14 15 13 13 21 26 31
54 55 55 55 54 54 53 53 54 54 54 54 53 48 40 35 30 33 28 22 13 16 17 16 18 17 14 16 17 14 14 14 16 16 16 15 14 19 19 18 21 23 24 25 27
54 55 55 55 54 54 54 54 53 53 50 49 46 43 34 30 24 25 24 19 15 14 14 14 18 16 17 17 16 16 14 17 19 19 18 16 17 19 19 19 18 18 19 20 21
54 55 55 54 54 54 54 53 50 49 45 45 40 35 33 29 22 15 17 18 20 14 14 16 17 15 17 17 15 18 19 19 18 19 17 17 17 16 15 16 16 17 18 19 21
55 55 54 53 54 53 51 44 37 34 39 35 32 30 28 31 36 33 18 23 29 24 22 20 19 19 20 20 21 20 20 18 22 22 16 16 17 15 15 15 16 17 17 18 20
54 54 53 53 53 53 50 41 40 37 33 36 36 36 36 36 34 34 34 32 28 24 24 24 20 20 20 20 20 20 19 20 22 21 19 18 15 13 12 12 13 15 17 18 19
53 53 53 53 53 49 45 43 37 34 35 33 34 34 34 36 34 34 34 33 28 25 24 23 22 23 22 21 21 21 21 21 21 18 17 16 16 13 11 10 11 13 15 16 18
53 53 53 53 48 46 43 41 36 37 31 26 31 35 31 34 31 34 35 30 30 27 25 25 25 24 23 23 23 22 23 21 19 18 16 17 11 14 11 10 10 11 13 14 16
50 49 51 52 47 44 43 38 39 41 19 24 29 22 20 24 19 22 24 24 20 23 23 23 20 21 25 23 22 23 21 19 19 19 20 18 15 13 13 9 9 10 12 13 15
47 48 49 47 47 45 45 41 44 30 19 21 22 20 18 18 18 19 17 17 18 18 19 19 21 18 19 20 20 23 20 20 21 20 19 18 16 10 9 10 9 9 11 12 14
44 45 45 45 45 46 44 43 29 22 18 19 22 23 23 22 26 23 20 16 19 17 19 21 20 20 18 18 19 22 21 19 17 17 13 14 18 9 9 10 10 10 11 12 13
40 41 43 44 45 47 44 35 22 21 18 20 22 26 25 22 25 27 26 25 24 22 24 23 20 21 15 17 17 19 22 18 13 16 12 16 18 5 10 12 12 11 12 12 12
39 40 41 45 47 47 40 27 24 23 25 30 30 24 24 28 26 24 24 27 27 24 25 19 20 18 18 15 18 18 19 22 21 22 20 14 4 8 9 9 9 10 10 11 12
37 38 41 43 45 45 35 28 25 30 30 27 23 27 24 23 22 23 29 31 28 25 25 25 23 24 13 16 20 24 21 20 22 15 14 16 8 4 6 6 8 8 9 10 11
37 32 40 42 44 37 26 23 30 28 23 23 26 21 21 21 19 18 23 23 27 29 29 26 28 23 15 15 18 19 24 25 26 24 17 13 5 8 6 6 6 8 9 10 10
32 23 39 41 30 31 29 23 20 20 15 9 16 17 18 17 13 12 17 22 26 27 27 30 29 23 20 20 23 24 24 24 21 19 19 18 -0 8 7 8 7 9 10 10 11
27 29 39 39 22 20 17 8 11 11 14 16 16 17 17 13 13 12 15 18 19 21 20 24 22 20 18 20 23 19 12 14 22 23 21 17 -2 7 7 8 9 8 8 8 6
28 26 32 30 22 17 13 15 9 11 13 15 17 12 13 11 13 13 12 16 13 13 21 19 6 1 8 5 10 4 1 8 11 20 13 2 -2 2 5 5 7 7 6 4 5
28 24 23 15 12 14 10 9 6 6 9 15 11 11 11 10 7 7 6 4 1 5 13 11 0 2 2 2 1 -1 -2 -0 -1 2 6 -1 -2 1 4 5 6 7 4 2 1
26 24 18 11 11 13 8 7 6 5 6 9 9 11 11 8 8 5 8 6 -3 -1 7 13 2 4 0 3 0 -4 -1 -0 -2 -1 -2 -2 -4 4 5 6 6 4 3 1 0
29 28 14 9 11 6 4 4 4 6 6 10 11 11 13 12 12 12 14 12 10 -2 4 8 6 6 1 4 4 -6 -4 -3 -3 -1 1 -3 -0 4 2 3 4 4 3 1 -1

GFSSW_sfc_30mbdewp_369.txt.gz
Dewpoint
56 55 55 55 55 54 54 54 54 54 54 54 54 54 55 56 55 52 47 45 52 53 46 41 41 47 47 42 37 30 25 18 20 20 20 20 19 19 18 13 21 29 30 39 48
55 55 55 54 54 54 54 53 53 54 54 54 54 54 54 55 52 48 47 48 48 53 48 37 35 43 44 38 32 30 25 19 19 20 18 20 20 17 16 19 20 22 37 42 47
55 55 55 54 54 53 53 53 54 54 54 54 54 54 54 55 45 34 48 53 51 55 52 44 37 40 39 32 31 28 26 22 22 21 22 21 20 18 15 14 20 20 31 40 43
55 55 54 54 53 53 54 53 53 53 54 54 54 53 54 52 29 39 50 54 54 49 43 41 40 35 33 31 27 25 24 26 24 24 23 20 20 16 18 16 19 18 24 37 40
55 55 54 54 54 53 54 53 52 52 53 54 53 53 51 44 43 43 46 46 51 46 40 38 36 31 29 26 27 21 22 21 22 24 23 20 16 15 14 19 18 27 27 27 28
55 55 55 55 54 54 54 53 52 52 53 53 53 52 50 40 44 43 42 45 45 45 42 42 28 29 25 24 21 21 21 21 19 17 17 16 15 14 18 18 23 22 23 24 26
55 55 55 55 54 54 53 52 52 53 53 52 52 52 47 43 44 42 44 43 48 46 43 43 34 26 22 17 18 18 18 18 18 15 13 14 12 15 20 20 20 20 22 22 24
55 55 54 54 54 53 53 52 53 53 53 53 53 50 42 46 46 45 43 44 35 41 41 41 28 18 21 21 18 15 14 14 16 16 15 12 11 17 19 19 19 19 20 21 21
55 54 54 54 54 53 53 53 53 53 53 53 48 47 40 36 30 28 30 29 33 30 18 17 15 16 18 15 14 15 13 13 16 17 16 14 13 17 18 19 18 19 19 20 20
54 52 51 52 52 52 53 52 52 52 47 46 45 39 37 30 21 17 17 20 26 22 13 13 13 14 16 15 15 15 14 15 14 17 17 17 16 16 18 18 17 17 18 18 19
51 51 50 50 50 50 50 49 39 36 38 35 32 33 32 34 36 35 35 22 17 18 13 15 12 12 14 16 16 18 18 18 19 20 19 19 18 14 14 15 15 15 16 16 17
48 47 47 47 48 48 50 42 39 40 35 37 37 37 37 37 35 35 37 31 18 20 20 15 14 16 18 19 19 18 19 19 20 20 26 23 14 11 12 13 14 14 15 15 16
45 44 43 43 45 48 43 40 39 38 35 33 36 36 35 36 34 34 35 34 28 24 20 25 23 24 20 20 20 19 18 18 18 19 30 24 16 16 11 11 13 14 15 15 15
43 43 43 42 42 44 42 41 40 41 29 27 33 35 29 35 31 35 35 34 32 30 31 31 32 30 27 24 24 23 23 22 25 26 23 29 17 15 12 10 11 13 13 13 14
41 41 41 40 40 43 43 42 42 41 7 24 30 25 23 26 26 26 29 34 31 32 32 28 29 29 29 26 26 27 30 31 31 29 27 27 22 13 10 9 10 11 12 13 13
39 39 39 39 39 40 45 45 44 27 13 22 25 25 21 22 25 22 23 27 25 27 26 24 25 26 28 29 28 31 32 31 30 27 20 25 24 10 12 9 10 10 11 12 12
38 38 40 40 37 45 47 43 24 19 23 25 23 22 21 22 24 21 15 18 24 23 22 23 23 24 24 24 26 30 28 19 17 16 14 24 24 6 8 11 9 9 10 11 12
37 39 39 43 44 46 44 32 19 22 23 23 21 17 18 17 17 16 18 16 26 23 19 17 12 26 25 22 26 25 24 18 12 13 13 16 11 2 10 12 12 11 11 10 11
37 37 41 41 43 45 36 19 23 23 22 17 11 12 15 11 15 10 9 16 18 16 10 14 13 17 14 27 30 26 24 25 22 23 19 4 2 8 10 9 10 9 9 9 10
34 37 34 39 41 42 30 24 26 14 13 13 11 11 12 14 11 9 8 12 11 5 8 16 9 12 22 25 28 29 25 21 22 13 13 6 2 5 4 5 7 7 7 9 9
33 35 36 30 41 34 23 19 16 10 12 13 15 15 15 14 11 11 14 14 9 4 8 10 14 11 15 20 18 22 23 24 20 19 13 7 5 5 5 6 5 6 7 7 7
31 25 36 32 9 20 12 12 9 8 13 16 16 13 13 11 9 11 10 10 10 6 7 10 12 10 9 13 10 5 1 3 15 17 15 10 -2 9 7 7 7 7 7 7 8
29 30 33 19 -5 15 5 14 3 8 10 13 13 11 10 9 8 11 8 8 8 6 10 13 4 1 5 15 -1 1 -0 2 4 9 14 12 -6 8 8 7 7 6 7 8 8
26 8 17 13 15 13 5 6 -0 7 10 12 14 9 7 7 10 6 5 6 8 6 11 11 2 -2 -7 -8 -2 -7 -4 -1 2 4 -0 -3 -3 2 4 4 5 6 7 7 7
26 17 15 -10 6 8 7 1 3 2 7 10 5 7 7 5 5 5 6 4 5 6 1 6 -2 -1 -1 0 -1 -4 -4 -4 -5 -2 -1 -3 -3 1 3 3 4 6 7 6 4
22 24 12 13 9 3 -1 -2 2 3 6 5 6 7 6 6 8 4 6 5 5 6 -7 4 1 -1 -4 2 -3 -7 -4 -6 -5 -3 -3 -3 -4 4 6 7 5 6 5 4 1
28 24 1 7 3 -7 -3 0 0 4 1 5 7 5 4 8 9 8 9 9 9 7 -8 -1 1 3 1 3 1 -11 -4 -3 -3 -3 -2 -8 -2 3 2 3 4 5 5 1 0

GFSSW_sfc_30mbdewp_372.txt.gz
Dewpoint
56 55 55 55 54 54 54 54 53 54 54 54 54 53 54 55 55 52 47 46 49 51 50 44 50 51 52 45 42 32 28 20 20 19 17 19 17 20 19 16 17 27 25 31 49
55 55 55 55 54 54 54 53 53 53 54 53 53 52 54 55 52 47 47 48 49 49 52 45 40 48 46 44 41 32 32 26 21 20 19 20 20 20 19 18 20 27 39 48 52
55 55 54 54 54 54 54 53 53 53 53 53 53 53 53 53 44 38 49 51 53 51 53 42 36 43 42 38 39 37 29 26 24 22 20 20 20 20 17 15 19 20 36 43 46
55 55 55 54 54 53 53 53 52 53 53 53 53 52 53 51 31 36 50 50 48 52 52 46 37 38 38 38 35 33 32 32 27 23 25 24 23 19 19 18 29 31 32 32 32
55 55 55 54 53 53 53 53 52 52 53 54 52 52 51 46 42 44 46 44 46 48 51 46 41 37 34 36 35 30 29 27 27 28 27 24 23 21 17 25 26 26 27 27 28
56 56 55 55 54 54 54 53 52 53 53 53 52 53 49 40 44 44 43 44 45 47 43 41 39 37 33 31 33 30 30 27 25 22 24 24 23 19 20 22 23 24 24 24 25
56 56 55 55 54 53 52 52 52 53 53 53 53 52 47 43 46 46 45 44 44 45 44 42 40 33 26 23 26 27 25 23 21 21 21 19 18 18 19 21 21 21 22 22 23
55 55 53 52 51 50 50 50 51 52 53 53 53 51 41 45 46 44 42 42 39 44 46 44 43 37 30 26 23 17 16 15 17 18 18 16 15 17 20 20 19 20 20 21 22
53 52 51 50 49 49 49 49 50 52 52 54 49 45 39 44 30 22 25 28 28 33 28 17 18 18 19 20 23 21 16 16 15 16 17 15 14 18 19 19 18 18 19 20 21
50 50 48 46 45 47 47 48 51 49 40 46 45 41 39 32 33 36 22 19 22 24 20 16 13 15 20 20 22 22 17 17 17 17 16 15 16 16 17 17 16 17 17 18 19
48 46 44 44 44 44 45 47 37 35 38 34 32 33 34 36 38 36 36 35 31 18 18 15 11 11 15 20 21 20 19 19 21 20 17 19 19 14 14 15 15 15 16 17 17
45 44 43 42 42 42 47 41 39 40 35 37 37 37 38 38 35 35 37 33 24 26 19 16 16 17 16 15 15 16 18 20 20 21 24 23 16 13 13 14 14 14 14 15 16
42 42 41 41 40 45 42 40 39 39 34 32 34 36 34 36 34 33 35 34 29 23 23 23 23 23 19 18 17 19 19 20 20 21 29 20 13 14 14 13 13 13 13 14 15
41 41 40 40 38 40 41 43 41 41 29 24 32 32 24 30 29 32 33 34 32 29 30 29 28 25 24 26 25 25 26 23 21 21 20 26 18 13 12 11 12 12 12 13 14
40 40 41 42 38 38 43 44 44 41 -4 25 26 25 22 24 23 23 24 20 26 23 29 26 30 30 30 29 30 27 29 29 29 27 26 24 23 11 12 9 9 11 12 13 14
40 40 42 40 39 38 44 46 43 24 3 24 26 22 10 20 26 19 13 20 22 24 28 28 29 28 28 26 26 28 31 31 30 27 20 24 23 9 9 9 8 10 11 12 13
39 41 41 41 40 43 45 40 20 11 22 21 19 16 7 14 16 14 16 14 11 10 9 11 17 20 23 24 22 30 27 18 17 16 16 22 24 6 9 10 9 8 9 11 11
39 40 41 42 40 42 44 24 9 21 21 22 14 7 12 14 14 9 9 14 11 6 6 6 2 13 11 7 14 15 19 16 12 12 13 21 9 1 9 10 11 10 10 9 9
38 36 37 34 34 43 31 17 20 16 13 12 9 9 11 12 11 6 11 10 11 4 3 6 6 7 7 7 22 16 14 20 21 21 17 4 -0 6 8 7 8 8 7 6 7
34 36 35 23 33 37 25 22 20 14 11 12 11 15 12 12 9 7 11 11 6 6 5 8 4 4 8 10 12 21 26 17 23 13 11 4 0 1 3 3 5 5 5 5 6
34 34 34 21 35 24 13 13 12 9 14 14 16 13 14 11 9 10 11 11 8 6 5 7 6 2 8 3 2 2 -1 1 5 16 10 4 1 5 3 4 3 4 5 5 5
30 16 34 23 -4 16 6 11 6 7 11 14 17 12 12 9 7 9 10 10 8 6 4 10 8 1 4 5 8 1 -2 -1 -2 6 10 5 -7 8 6 5 4 4 5 6 6
30 25 22 15 -14 0 2 10 4 8 10 12 13 9 8 8 7 9 8 6 6 5 10 10 0 -4 -5 1 -7 -3 -4 -2 -0 1 -3 3 -11 7 7 5 6 5 6 6 6
17 -8 6 13 11 4 5 -7 -3 6 9 10 11 6 5 4 9 5 5 7 7 6 6 3 -4 -4 -9 -9 -3 -7 -6 -5 -3 -0 -6 -6 -6 0 2 2 4 5 6 6 7
19 11 12 -12 6 -3 4 -0 -2 -1 5 8 -1 6 5 2 3 3 5 3 4 6 -5 4 -4 -3 -1 -0 -6 -4 -4 -5 -7 -4 -6 -5 -6 -1 2 2 4 6 6 5 5
19 15 9 10 3 -11 -3 -6 -1 1 4 0 2 5 5 5 6 2 4 1 2 3 -12 -0 -0 0 -3 1 1 -8 -4 -5 -6 -5 -4 -4 -5 3 5 6 5 5 5 4 1
26 14 -3 1 -4 -14 -6 -4 -2 3 -0 4 5 4 0 5 7 7 8 5 6 2 -12 -9 -1 -0 -2 1 -2 -13 -5 -4 -5 -3 -4 -9 -4 2 1 2 3 4 5 2 2